Regional Weather Roundup
Issued by NWS

Home | Current Version | Previous Version | Graphics & Text | Print | Product List | Glossary On
Versions: 1 2 3 4 5 6 7 8 9 10 11 12 13 14 15 16 17 18 19 20 21 22 23 24 25 26 27 28 29 30 31 32 33 34 35 36 37 38 39 40 41 42 43 44 45 46 47 48 49 50
000
ASUS43 KIND 251259
RWRIN

WEATHER ROUNDUP FOR INDIANA
NATIONAL WEATHER SERVICE INDIANAPOLIS IN
800 AM EST SAT FEB 25 2017

NOTE: "FAIR" INDICATES FEW OR NO CLOUDS BELOW 12,000 FEET WITH NO
SIGNIFICANT WEATHER AND/OR OBSTRUCTIONS TO VISIBILITY.

* - STATION DOES NOT REPORT WEATHER SUCH AS PRECIPITATION OR FOG.

+ - STATION NOT QUALITY CONTROLLED BY THE NATIONAL WEATHER SERVICE.
    USE DATA WITH CAUTION...ESPECIALLY DEWPOINT AND RELATIVE
    HUMIDITY OBSERVATIONS.

INZ001>003-010>013-019-020-251400-
NORTHWEST INDIANA

CITY           SKY/WX    TMP DP  RH WIND       PRES   REMARKS
GARY /AIRPORT/ MOCLDY    27  16  63 W17G39    29.74R WCI  14
KNOX *+        CLOUDY    30   5  34 W17G23    29.70R WCI  18
MICHIGAN CITY+ CLOUDY    28  21  74 NW14G25   29.71R WCI  17
RENSSELAER +   FLURRIES  28  23  80 W22G30    29.75R WCI  15

$$

LMZ046-743>745-251400-
SOUTHERN LAKE MICHIGAN

STATION/POSITION TIME  TEMP    WIND        PRES    WAVE
                       AIR SEA DIR/SP/G            HT
                 (UTC) (F)     (DEG/KT/KT) (MB)    (FT)
BURNS HARBOR     1230   29     290/ 18/ 24 1006.4R
MICHIGAN CITY    1230   28     260/ 28/ 32   N/A

$$

INZ004-005-014>016-021>024-251400-
NORTH CENTRAL INDIANA

CITY           SKY/WX    TMP DP  RH WIND       PRES   REMARKS
GOSHEN         CLOUDY    31  21  66 W17G26    29.64R WCI  19
PERU/GRISSOM   CLOUDY    30  28  93 W25G35    29.68R WCI  16
SOUTH BEND     LGT SNOW  28  24  85 NW20      29.67R FOG     WCI  15

$$

INZ006>009-017-018-025>027-251400-
NORTHEAST INDIANA

CITY           SKY/WX    TMP DP  RH WIND       PRES   REMARKS
ANGOLA *+      CLOUDY    30  28  93 W14       29.60R WCI  20
FORT WAYNE     FLURRIES  33  28  81 W16       29.65R WCI  23
KENDALLVILLE + LGT SNOW  31  27  84 W15G24    29.61R WCI  20

$$

INZ028-029-035-036-043>045-051>053-251400-
WEST CENTRAL INDIANA

CITY           SKY/WX    TMP DP  RH WIND       PRES   REMARKS
LAFAYETTE      CLOUDY    28  23  81 W22G29    29.76R WCI  14
TERRE HAUTE    FLURRIES  29  19  66 W22G33    29.86R WCI  15

$$

INZ030>032-037>040-046>048-054>057-064-065-251400-
CENTRAL INDIANA

CITY           SKY/WX    TMP DP  RH WIND       PRES   REMARKS
COLUMBUS       LGT SNOW  32  28  86 W22G32    29.80R FOG     WCI  19
GREENWOOD *+   CLOUDY    32  28  84 W16G28    29.78R WCI  21
INDIANAPOLIS   LGT SNOW  29  26  89 W23G33    29.78R VSB 1   WCI  15
-EAGLE CREEK   LGT SNOW  30  26  85 W18G29    29.76R FOG     WCI  18
KOKOMO +       LGT SNOW  30  28  92 W26       29.71R FOG     WCI  16
MT COMFORT *+  CLOUDY    30  28  93 W23G29    29.75R WCI  17
SHELBYVILLE    LGT SNOW  33  26  75 W21G30    29.76R WCI  21

$$

INZ033-034-041-042-049-050-058-059-251400-
EAST CENTRAL INDIANA

CITY           SKY/WX    TMP DP  RH WIND       PRES   REMARKS
MUNCIE         CLOUDY    34  29  82 W17G31    29.69R WCI  23

$$

INZ060-061-067>069-081>083-085>088-251400-
SOUTHWEST INDIANA

CITY           SKY/WX    TMP DP  RH WIND       PRES   REMARKS
EVANSVILLE     CLOUDY    32  18  56 W15G26    29.95R WCI  22
HUNTINGBURG *+ CLOUDY    32  23  69 W18       29.91R WCI  20

$$

INZ062-063-066-070>080-084-089>092-251400-
SOUTH CENTRAL AND SOUTHEAST INDIANA

CITY           SKY/WX    TMP DP  RH WIND       PRES   REMARKS
BLOOMINGTON    FLURRIES  30  24  78 W20G25    29.82R WCI  17
MADISON *+     CLOUDY    34  23  64 W13G23    29.82R WCI  25
SEYMOUR +      CLOUDY    36  25  64 W21       29.82

$$





USA.gov is the U.S. government's official web portal to all federal, state and local government web resources and services.